www.pogodaiklimat.ru

Погода и климат >> Архив погоды >> Австралия >> Западная Австралия >> Параберду


ПОГОДА в Параберду

  • Прогноз погоды в Параберду
  • Монитор погоды в Параберду

АРХИВ ПОГОДЫ в Параберду

Время (UTC), дата Ветер
(напр.,м/с)
 
Видим.   Явления Облачность Т
(С)
Тd
(С)
f
(%)
Тe
(С)
Тes
(С)
Комфортность P
(гПа)
Po
(гПа)
Тmin
(С)
Tmax
(С)
R
(мм)
R24
(мм)
S
(см)
01 19.04 Ю 4 н/о н/о +23.0 +14.0 57 +26 +26 жарко 1014.4 967.0 +21.5
03 19.04 Ю 5 н/о н/о +25.1 +13.9 50 +27 +27 жарко 1013.6 966.2
04 19.04 Ю 5 н/о н/о +26.1 +13.2 45 +28 +28 жарко 1012.7 965.4
06 19.04 ЮЗ 4 н/о н/о +28.6 +12.1 36 +30 +30 жарко 1010.8 963.6
07 19.04 Ю 4 н/о н/о +28.3 +11.4 35 +29 +29 жарко 1010.5 963.3
09 19.04 Ю 5 н/о н/о +27.1 +10.8 36 +28 +28 жарко 1011.0 963.8
10 19.04 Ю 5 н/о 1/0
[]
+26.1 +8.6 33 +26 +26 жарко 1011.9 964.6
12 19.04 Ю 5 н/о н/о +25.0 +7.6 33 +25 +25 комфорт 1013.4 966.0
13 19.04 Ю 5 н/о 3/0
[]
+24.4 +8.4 36 +25 +25 комфорт 1014.0 966.6 +31.9
15 19.04 Ю 7 н/о н/о +22.1 +9.3 44 +24 +24 комфорт 1014.6 967.2
16 19.04 Ю 5 н/о 3/0
[]
+21.2 +8.5 44 +22 +22 комфорт 1014.6 967.2
18 19.04 Ю 4 н/о н/о +19.7 +7.8 46 +21 +21 комфорт 1014.5 967.1
19 19.04 ЮВ 6 н/о н/о +19.3 +7.7 47 +20 +20 1014.6 967.2
21 19.04 ЮВ 5 н/о н/о +17.9 +7.6 51 +18 +18 1015.0 967.6
22 19.04 ЮВ 5 н/о н/о +17.2 +7.0 51 +17 +17 1015.7 968.2
00 20.04 ЮВ 7 н/о н/о +17.0 +5.6 47 +16 +16 1017.6 970.0
01 20.04 ЮВ 7 н/о н/о +17.3 +4.9 44 +16 +16 1017.9 970.3 +16.7
03 20.04 Ю 5 н/о н/о +21.0 +4.1 33 +22 +22 комфорт 1017.0 969.5
04 20.04 ЮВ 4 н/о н/о +22.6 +3.7 29 +23 +23 комфорт 1015.9 968.4
06 20.04 ЮВ 6 н/о н/о +24.8 +2.3 23 +24 +24 комфорт 1014.2 966.8
07 20.04 Ю 6 н/о н/о +25.5 +1.6 21 +24 +24 комфорт 1013.8 966.4
09 20.04 ЮВ 5 н/о н/о +25.0 +1.2 21 +24 +24 комфорт 1013.6 966.2
10 20.04 ЮВ 4 н/о н/о +24.0 +1.0 22 +23 +23 комфорт 1014.3 966.9
12 20.04 ЮВ 4 н/о н/о +22.4 -0.3 22 +22 +22 комфорт 1016.0 968.5
13 20.04 ЮВ 4 н/о н/о +20.7 0.0 25 +21 +21 комфорт 1016.5 969.0 +26.5
15 20.04 ЮВ 8 н/о н/о +20.1 -2.3 22 +19 +19 1016.3 968.8
16 20.04 ЮВ 8 н/о н/о +19.0 -1.4 25 +18 +18 1016.5 969.0
18 20.04 ЮВ 8 н/о н/о +17.4 -1.3 28 +16 +16 1016.7 969.2
19 20.04 В 8 н/о н/о +16.6 -1.5 29 +15 +15 1016.6 969.1
21 20.04 В 7 н/о н/о +15.5 -1.5 31 +14 +14 1016.9 969.4
22 20.04 В 7 н/о н/о +15.1 -1.9 31 +14 +14 1017.4 969.9
00 21.04 В 6 н/о н/о +16.3 -2.7 27 +15 +15 1018.3 970.7
01 21.04 В 6 н/о н/о +19.0 -2.6 23 +19 +19 1017.9 970.3 +14.7
03 21.04 В 6 н/о н/о +22.2 -4.8 16 +21 +21 комфорт 1017.3 969.8
04 21.04 В 6 н/о н/о +24.3 -5.8 13 +22 +22 комфорт 1016.2 968.7
06 21.04 ЮВ 6 н/о н/о +27.8 -7.9 9 +24 +24 комфорт 1013.8 966.4
07 21.04 В 6 н/о н/о +28.7 -8.8 8 +25 +25 комфорт 1013.5 966.1
09 21.04 В 6 н/о н/о +28.2 -9.1 8 +25 +25 комфорт 1013.3 965.9
10 21.04 ЮВ 5 н/о н/о +26.1 -9.2 9 +23 +23 комфорт 1013.8 966.4
12 21.04 ЮВ 5 н/о н/о +24.2 -8.1 11 +22 +22 комфорт 1015.2 967.8
13 21.04 В 6 н/о н/о +23.6 -7.4 12 +21 +21 комфорт 1015.5 968.0 +29.8
15 21.04 В 5 н/о н/о +21.1 -6.5 15 +20 +20 1015.8 968.3
16 21.04 В 7 н/о н/о +20.7 -6.0 16 +20 +20 1015.7 968.2
18 21.04 В 7 н/о н/о +19.0 -5.8 18 +18 +18 1015.8 968.3
19 21.04 В 5 н/о н/о +18.0 -5.3 20 +18 +18 1016.0 968.5
21 21.04 В 4 н/о н/о +15.8 -4.7 24 +15 +15 1015.9 968.4
22 21.04 В 4 н/о н/о +15.2 -4.2 26 +15 +15 1016.1 968.6
00 22.04 В 6 н/о н/о +18.7 -3.4 22 +18 +18 1016.8 969.3
01 22.04 СВ 8 н/о н/о +21.0 -4.2 18 +20 +20 1017.0 969.5 +13.5
03 22.04 В 5 н/о н/о +25.6 -5.9 12 +23 +23 комфорт 1015.8 968.3
04 22.04 СВ 2 н/о н/о +28.0 -6.4 10 +25 +25 комфорт 1014.6 967.2
06 22.04 ЮЗ 3 н/о н/о +30.2 -7.7 8 +26 +26 жарко 1013.3 965.9
07 22.04 З 3 н/о н/о +30.9 -8.9 7 +27 +27 жарко 1013.0 965.7
09 22.04 Ю 4 н/о н/о +29.8 -8.0 8 +26 +26 жарко 1013.5 966.1
10 22.04 ЮЗ 3 н/о н/о +27.9 -7.9 9 +24 +24 комфорт 1014.2 966.8
12 22.04 З 1 н/о н/о +22.8 -5.2 15 +21 +21 комфорт 1015.5 968.0
13 22.04 ЮЗ 1 н/о н/о +21.5 -4.5 17 +20 +20 1015.6 968.1 +31.7
15 22.04 СВ 3 н/о н/о +17.0 -3.7 24 +17 +17 1015.3 967.9
16 22.04 СВ 3 н/о н/о +15.5 -2.9 28 +15 +15 1015.3 967.9
18 22.04 СВ 4 н/о н/о +15.6 -4.3 25 +15 +15 1014.9 967.5
19 22.04 СВ 4 н/о н/о +15.4 -5.0 24 +15 +15 1014.7 967.3
21 22.04 СВ 4 н/о н/о +15.5 -3.4 27 +15 +15 1014.8 967.4
22 22.04 В 4 н/о н/о +16.7 -1.9 28 +16 +16 1015.1 967.7
00 23.04 В 5 н/о н/о +22.8 +1.8 25 +22 +22 комфорт 1016.3 968.8
01 23.04 В 5 н/о н/о +24.4 +1.9 23 +23 +23 комфорт 1016.7 969.2 +14.9
03 23.04 В 4 н/о н/о +29.6 +0.2 15 +27 +27 жарко 1015.9 968.4
04 23.04 СВ 3 н/о н/о +29.9 -2.6 12 +27 +27 жарко 1014.7 967.3
06 23.04 Ю 3 н/о н/о +32.5 -3.0 10 +29 +29 жарко 1013.0 965.7
07 23.04 В 2 н/о н/о +32.5 -4.4 9 +29 +29 жарко 1012.8 965.5
09 23.04 Ю 4 н/о н/о +32.5 -4.4 9 +29 +29 жарко 1013.5 966.1
10 23.04 Ю 4 н/о 9/0
[]
+30.6 -3.2 11 +27 +27 жарко 1014.1 966.7
12 23.04 Ю 4 н/о н/о +27.5 -2.3 14 +25 +25 комфорт 1015.3 967.9
13 23.04 Ю 1 н/о 9/0
[]
+25.1 -0.9 18 +23 +23 комфорт 1015.8 968.3 +33.6
15 23.04 СВ 2 н/о н/о +21.6 +0.2 24 +21 +21 комфорт 1015.5 968.0
16 23.04 С 2 н/о 1/0
[]
+21.4 +0.6 25 +21 +21 комфорт 1015.2 967.8
18 23.04 СВ 4 н/о н/о +20.8 +0.6 26 +21 +21 комфорт 1014.8 967.4
19 23.04 СВ 3 н/о н/о +20.7 0.0 25 +21 +21 комфорт 1015.0 967.6
21 23.04 В 4 н/о н/о +19.2 +0.3 28 +19 +19 1015.9 968.4
22 23.04 В 4 н/о н/о +18.6 +1.2 31 +19 +19 1016.4 968.9
00 24.04 В 5 н/о н/о +25.8 +1.8 21 +24 +24 комфорт 1017.4 969.9
01 24.04 В 7 н/о н/о +28.1 +0.8 17 +26 +26 жарко 1017.6 970.0 +18.4
03 24.04 СВ 8 н/о н/о +32.8 +1.8 14 +30 +30 жарко 1016.4 968.9
04 24.04 СВ 5 н/о н/о +33.7 +2.5 14 +31 +31 жарко 1015.3 967.9
06 24.04 С 3 н/о н/о +34.7 +1.1 12 +31 +31 жарко 1013.7 966.3
07 24.04 ЮЗ 3 н/о н/о +34.6 -0.1 11 +31 +31 жарко 1013.4 966.0
09 24.04 ЮВ 4 н/о н/о +34.0 -0.6 11 +30 +30 жарко 1013.7 966.3
10 24.04 Ю 3 н/о н/о +32.0 +0.2 13 +29 +29 жарко 1014.1 966.7
12 24.04 ЮВ 3 н/о н/о +29.0 -0.2 15 +26 +26 жарко 1015.5 968.0
13 24.04 С 2 н/о н/о +26.3 +0.1 18 +24 +24 комфорт 1015.9 968.4 +35.6
15 24.04 В 4 н/о н/о +26.3 -0.7 17 +24 +24 комфорт 1015.8 968.3
16 24.04 В 4 н/о н/о +26.2 -2.4 15 +24 +24 комфорт 1015.7 968.2
18 24.04 В 5 н/о н/о +24.7 -2.8 16 +23 +23 комфорт 1015.2 967.8
19 24.04 В 6 н/о н/о +24.3 -3.1 16 +22 +22 комфорт 1015.1 967.7
21 24.04 В 5 н/о н/о +22.5 -2.2 19 +21 +21 комфорт 1015.5 968.0
22 24.04 СВ 5 н/о н/о +20.4 -2.0 22 +20 +20 1015.8 968.3
00 25.04 СВ 6 н/о н/о +24.7 -1.2 18 +23 +23 комфорт 1016.8 969.3
01 25.04 СВ 7 н/о н/о +27.9 +0.6 17 +26 +26 жарко 1016.8 969.3 +20.1
03 25.04 В 7 н/о н/о +31.2 +0.6 14 +28 +28 жарко 1015.8 968.3
04 25.04 В 3 н/о н/о +32.0 +0.2 13 +29 +29 жарко 1014.7 967.3
06 25.04 Ю 5 н/о н/о +33.1 -1.3 11 +30 +30 жарко 1012.8 965.5
07 25.04 Ю 4 н/о н/о +33.5 -2.3 10 +30 +30 жарко 1012.5 965.2
09 25.04 В 5 н/о н/о +33.0 -2.6 10 +29 +29 жарко 1012.6 965.3
10 25.04 ЮВ 5 н/о н/о +31.1 -2.8 11 +28 +28 жарко 1013.1 965.8
12 25.04 В 4 н/о н/о +28.5 -0.6 15 +26 +26 жарко 1014.8 967.4
13 25.04 В 4 н/о н/о +27.2 -0.8 16 +25 +25 комфорт 1015.5 968.0 +34.8
15 25.04 ЮВ 4 н/о н/о +24.8 +0.3 20 +23 +23 комфорт 1015.3 967.9
16 25.04 В 4 н/о н/о +24.9 +1.1 21 +24 +24 комфорт 1015.5 968.0
18 25.04 СВ 5 н/о н/о +23.6 +3.0 26 +23 +23 комфорт 1014.8 967.4
19 25.04 В 6 н/о н/о +24.7 +3.4 25 +24 +24 комфорт 1014.9 967.5
21 25.04 В 5 н/о н/о +22.8 +3.4 28 +23 +23 комфорт 1015.3 967.9
22 25.04 В 7 н/о н/о +22.5 +3.6 29 +22 +22 комфорт 1015.8 968.3
00 26.04 В 6 н/о н/о +24.9 +4.1 26 +24 +24 комфорт 1016.9 969.4
01 26.04 В 8 н/о н/о +26.7 +3.2 22 +25 +25 комфорт 1017.0 969.5 +21.6

 

Местоположение метеостанции Параберду (Западная Австралия, Австралия): широта -23.17 долгота 117.75 высота над уровнем моря 424 м.

В архиве по умолчанию представлена погода в Параберду за последнюю неделю. Архивные данные за месяц целиком и за предыдущие месяцы, начиная с января 2011 года, Вы можете получить, выбрав интересующий диапазон дат из раскрывающегося списка и нажав кнопку "Ввод!".


*Определитесь, кто Вы:
робот инопланетянин человек

Внимание! Время в таблицах - всемирное. Для получения местного времени необходимо прибавить поправку, которая равна 8 ч.

Смотрите также архив погоды в соседних городах и на ближайших метеорологических станциях:

Погода в Ньюмане (Западная Австралия, Австралия) (211 км)
Погода в Роборн аэропорту (Западная Австралия, Австралия) (276 км)
Погода в Марди (Западная Австралия, Австралия) (287 км)
Погода в Каррате (Западная Австралия, Австралия) (291 км)
Погода в Марбл-баре (Западная Австралия, Австралия) (302 км)
Погода в Онслоу (Западная Австралия, Австралия) (318 км)
Погода в Порт-Хедленде Apardoo (Западная Австралия, Австралия) (325 км)
Погода на Острове Тевенард (Западная Австралия, Австралия) (340 км)
Погода в Барроу-Айленд (Западная Австралия, Австралия) (352 км)
Погода на Острове Варанас (Западная Австралия, Австралия) (359 км)

Пояснения к столбцам:

Ветер - указаны скорость ветра в м/с - средняя за 10 мин, порывы в срок и между сроками (в фигурных скобках) и направление, откуда дует ветер: С - северный, СВ - северо-восточный, В - восточный, ЮВ - юго-восточный, Ю - южный, ЮЗ - юго-западный, З - западный, СЗ - северо-западный.
Видимость - горизонтальная дальность видимости в метрах или километрах. При видимости от 1 до 10 км при отсутствии осадков обычно наблюдается дымка, при ухудшении видимости до 1 км и менее - туман. В сухую погоду видимость может ухудшаться дымом, пылью или мглою.
Явления - указаны атмосферные явления, наблюдавшиеся в срок или в последний час перед сроком; фигурными скобками обозначены явления, наблюдавшиеся между сроками (за 1-3 часа до срока); квадратными скобками обозначены град или гололедные отложения с указанием их диаметра в мм.
Облачность - указаны через наклонную черту общая и нижняя облачность в баллах и высота нижней границы облаков в метрах; квадратными скобками обозначены формы облаков: Ci - перистые, Cs - перисто-слоистые, Cc - перисто-кучевые, Ac - высококучевые, As - высокослоистые, Sc - слоисто-кучевые, Ns - слоисто-дождевые, Cu - кучевые, Cb - кучево-дождевые. Подробнее классификацию облаков см. в Атласе облаков (PDF).
T - Температура воздуха - температура, измеренная на высоте 2 м над землей.
Td - Температура точки росы - температура, при понижении до которой содержащийся в воздухе водяной пар достигнет насыщения.
f - Относительная влажность воздуха - влажноcть воздуха, измеренная на высоте 2 м над землей.
Te - Эффективная температура - температура, которую ощущает одетый по сезону человек в тени. Характеристика душности погоды. При расчете учитывается влияние влажности воздуха и скорости ветра на теплоощущения человека.
Tes - Эффективная температура на солнце - температура, которую ощущает человек, с поправкой на солнечный нагрев. Характеристика знойности погоды. Зависит от высоты солнца над горизонтом, облачности и скорости ветра. Ночью, в пасмурную погоду, а также при ветре 12 м/с и более поправка равна нулю.
P - Атмосферное давление - приведенное к уровню моря атмосферное давление.
Po - Атмосферное давление - измеренное на уровне метеостанции атмосферное давление.
Tmin - Минимальная температура - минимум температуры воздуха на высоте 2 м над землей.
Tmax - Максимальная температура - максимум температуры воздуха на высоте 2 м над землей.
R - Количество осадков - Количество выпавших осадков за период времени, мм. При наведении курсора мыши на число - период времени, за который выпало указанное количество осадков.
R24 - Количество осадков - Количество выпавших осадков за 24 часа, мм.
S - Снежный покров - Высота снежного покрова, см. При наведении курсора мыши на число - состояние снежного покрова и степень покрытия местности в баллах.